www.pogodaiklimat.ru

Погода и климат >> Архив погоды >> Бразилия >> Риу-Гранди-ду-Сул >> Порту-Алегри


ПОГОДА в Порту-Алегри

  • Прогноз погоды в Порту-Алегри
  • Монитор погоды в Порту-Алегри

АРХИВ ПОГОДЫ в Порту-Алегри

Время (UTC), дата Ветер
(напр.,м/с)
 
Видим.   Явления Облачность Т
(С)
Тd
(С)
f
(%)
Тe
(С)
Тes
(С)
Комфортность P
(гПа)
Po
(гПа)
Тmin
(С)
Tmax
(С)
R
(мм)
R24
(мм)
S
(см)
22 13.08 Ю 1
{4}
н/о н/о +9.9 +1.0 54 +10 +10 1030.1 1025.0
23 13.08 Ю 1
{4}
н/о н/о +9.2 +1.2 57 +9 +9 1030.9 1025.8
00 14.08 Ю 1
{4}
н/о н/о +8.6 +1.8 62 +8 +8 1031.5 1026.4
01 14.08 Ю 1
{5}
н/о н/о +8.3 +0.5 58 +9 +9 1032.1 1027.0
02 14.08 Ю 1
{3}
н/о н/о +8.0 +0.7 60 +8 +8 1032.9 1027.7
03 14.08 ЮЗ 1
{3}
н/о н/о +7.4 +0.4 61 +7 +7 1033.3 1028.1
04 14.08 ЮЗ 1
{3}
н/о н/о +6.7 +0.6 65 +6 +6 1033.5 1028.3
05 14.08 ЮЗ 1
{3}
н/о н/о +6.5 +1.2 69 +6 +6 1033.5 1028.3
06 14.08 ЮЗ 1
{3}
н/о н/о +6.3 +1.8 73 +5 +5 1033.7 1028.5
07 14.08 ЮЗ 1
{2}
н/о н/о +6.8 +1.9 71 +7 +7 1033.3 1028.1
08 14.08 З 1
{2}
н/о н/о +7.0 +1.9 70 +7 +7 1033.0 1027.8
09 14.08 ЮЗ 1
{2}
н/о н/о +6.8 +1.8 70 +7 +7 1033.1 1027.9
10 14.08 ЮЗ 1
{2}
н/о н/о +6.9 +2.2 72 +7 +7 1033.1 1027.9
11 14.08 З 1
{2}
н/о н/о +6.9 +3.0 76 +6 +6 1034.0 1028.8
12 14.08 З 1
{2}
н/о н/о +7.2 +3.8 79 +7 +7 1034.9 1029.7
13 14.08 З 1
{2}
н/о н/о +8.1 +4.1 76 +7 +7 1035.4 1030.2
14 14.08 З 1
{2}
н/о н/о +9.5 +4.8 72 +9 +9 1035.3 1030.2
15 14.08 З 1
{2}
н/о н/о +10.3 +5.0 70 +11 +11 1034.7 1029.6
16 14.08 З 1
{2}
н/о н/о +11.3 +6.0 70 +12 +12 1034.0 1028.9
17 14.08 ЮВ 1
{2}
н/о н/о +12.6 +6.6 67 +14 +14 1033.2 1028.1
18 14.08 ЮВ 1
{3}
н/о н/о +13.4 +7.0 65 +14 +14 1032.5 1027.4
19 14.08 ЮВ 1
{3}
н/о н/о +13.0 +7.5 69 +13 +13 1031.8 1026.7
20 14.08 ЮВ 1
{3}
н/о н/о +12.6 +7.2 70 +13 +13 1031.4 1026.3
21 14.08 ЮВ 1
{3}
н/о н/о +10.7 +7.1 78 +10 +10 1031.4 1026.3
22 14.08 ЮВ 1
{3}
н/о н/о +9.6 +7.1 84 +9 +9 1031.3 1026.2
23 14.08 ЮВ 1
{3}
н/о н/о +8.7 +7.0 89 +9 +9 1031.6 1026.5
00 15.08 В 1
{2}
н/о н/о +8.5 +6.9 90 +9 +9 1031.7 1026.6
01 15.08 В 1
{2}
н/о н/о +8.5 +7.1 91 +8 +8 1031.4 1026.3
02 15.08 ЮВ 1
{2}
н/о н/о +8.3 +7.2 93 +8 +8 1030.7 1025.6
03 15.08 В 1
{3}
н/о н/о +9.3 +7.9 91 +10 +10 1030.3 1025.2
04 15.08 В 1
{3}
н/о н/о +9.7 +7.9 89 +9 +9 1029.4 1024.3
05 15.08 В 1
{3}
н/о н/о +9.6 +7.5 87 +10 +10 1028.4 1023.3
06 15.08 ЮВ 1
{2}
н/о н/о +8.6 +7.4 92 +9 +9 1027.9 1022.8
07 15.08 ЮВ 1
{2}
н/о н/о +8.5 +7.4 93 +9 +9 1027.8 1022.7
08 15.08 ЮВ 1
{2}
н/о н/о +7.7 +6.6 93 +8 +8 1027.4 1022.3
09 15.08 ЮВ 1
{2}
н/о н/о +8.1 +7.0 93 +8 +8 1027.7 1022.6
10 15.08 штиль 0
{1}
н/о н/о +7.8 +6.8 93 +7 +7 1027.8 1022.7
11 15.08 В 1
{1}
н/о н/о +10.2 +7.7 84 +11 +11 1028.1 1023.0
12 15.08 С 1
{1}
н/о н/о +11.9 +8.7 81 +13 +13 1028.2 1023.1
13 15.08 В 1
{1}
н/о н/о +15.3 +8.2 63 +17 +17 1028.0 1023.0
14 15.08 СВ 1
{2}
н/о н/о +17.2 +8.3 56 +19 +19 1027.6 1022.6
15 15.08 СВ 1
{2}
н/о н/о +17.8 +7.2 50 +19 +19 1026.6 1021.6
16 15.08 СВ 1
{2}
н/о н/о +19.1 +8.2 49 +21 +21 комфорт 1025.5 1020.6
17 15.08 С 1
{2}
н/о н/о +19.7 +8.9 50 +22 +22 комфорт 1024.1 1019.2
18 15.08 В 1
{2}
н/о н/о +21.1 +10.3 50 +23 +23 комфорт 1022.8 1017.9
19 15.08 СВ 1
{2}
н/о н/о +21.5 +9.0 45 +23 +23 комфорт 1022.3 1017.4
20 15.08 В 1
{1}
н/о н/о +21.6 +9.2 45 +23 +23 комфорт 1022.2 1017.3
21 15.08 ЮВ 1
{1}
н/о н/о +16.6 +10.6 68 +18 +18 1022.4 1017.4
22 15.08 В 1
{2}
н/о н/о +15.6 +10.0 69 +17 +17 1022.5 1017.5
23 15.08 В 1
{2}
н/о н/о +14.6 +10.6 77 +16 +16 1022.4 1017.4
00 16.08 В 1
{2}
н/о н/о +13.8 +11.1 84 +15 +15 1022.4 1017.4
01 16.08 В 1
{2}
н/о н/о +13.2 +10.9 86 +14 +14 1022.4 1017.4
02 16.08 штиль 0
{1}
н/о н/о +12.3 +10.8 91 +12 +12 1022.3 1017.3
03 16.08 В 1
{1}
н/о н/о +11.0 +9.9 93 +11 +11 1022.2 1017.1
04 16.08 В 1
{1}
н/о н/о +10.7 +9.7 94 +11 +11 1022.1 1017.0
05 16.08 В 1
{1}
н/о н/о +10.2 +9.3 94 +11 +11 1021.5 1016.4
06 16.08 В 1
{1}
н/о н/о +10.2 +9.3 94 +11 +11 1020.7 1015.6
07 16.08 штиль 0
{1}
н/о н/о +10.0 +9.3 95 +9 +9 1020.3 1015.2
08 16.08 штиль 0 н/о н/о +9.7 +9.1 96 +9 +9 1020.1 1015.0
09 16.08 штиль 0
{1}
н/о н/о +9.5 +8.8 95 +9 +9 1019.9 1014.8
10 16.08 СВ 1
{1}
н/о н/о +10.0 +9.5 97 +10 +10 1019.8 1014.7
11 16.08 штиль 0
{1}
н/о н/о +11.2 +10.6 96 +10 +10 1020.3 1015.3
12 16.08 ЮВ 1
{1}
н/о н/о +14.0 +11.6 85 +15 +15 1020.3 1015.3
13 16.08 штиль 0
{1}
н/о н/о +19.4 +12.1 63 +21 +21 комфорт 1020.1 1015.2
14 16.08 С 1
{2}
н/о н/о +20.9 +11.5 55 +24 +24 комфорт 1019.6 1014.7
15 16.08 С 1
{2}
н/о н/о +22.3 +12.7 55 +25 +25 комфорт 1018.4 1013.6
16 16.08
{2}
н/о н/о +23.5 +13.1 52 1017.4 1012.6
17 16.08 В 1
{2}
н/о н/о +26.1 +14.9 50 +29 +29 жарко 1016.4 1011.6
18 16.08 В 1
{1}
н/о н/о +26.9 +15.5 50 +30 +30 душно 1015.5 1010.7
19 16.08 В 1
{2}
н/о н/о +26.1 +15.5 52 +29 +29 жарко 1015.0 1010.2
20 16.08 В 1
{2}
н/о н/о +24.7 +16.0 58 +28 +28 душно 1014.9 1010.1
21 16.08 ЮВ 1
{2}
н/о н/о +21.8 +15.4 67 +25 +25 комфорт 1015.0 1010.2
22 16.08 ЮВ 1
{3}
н/о н/о +20.5 +14.7 69 +24 +24 комфорт 1015.2 1010.3
23 16.08 В 1
{3}
н/о н/о +20.8 +14.0 65 +25 +25 комфорт 1015.0 1010.2
00 17.08 В 1
{2}
н/о н/о +20.4 +13.4 64 +24 +24 комфорт 1014.8 1009.9
01 17.08 ЮВ 1
{1}
н/о н/о +20.4 +13.7 65 +24 +24 комфорт 1014.7 1009.8
02 17.08 штиль 0
{1}
н/о н/о +18.6 +13.8 74 +19 +19 1014.6 1009.7
03 17.08 штиль 0
{1}
н/о н/о +17.2 +14.0 81 +17 +17 1014.1 1009.2
04 17.08 СЗ 1
{1}
н/о н/о +16.3 +13.9 86 +18 +18 1013.9 1009.0
05 17.08 ЮВ 1
{1}
н/о н/о +15.5 +13.9 90 +17 +17 1013.5 1008.6
12 17.08 С 1
{2}
н/о н/о +20.9 +13.4 62 +25 +25 комфорт 1012.5 1007.7
13 17.08 С 1
{3}
н/о н/о +23.2 +14.0 56 +27 +27 душно 1011.8 1007.0
15 17.08 С 2
{5}
н/о н/о +27.5 +11.5 37 +28 +28 жарко 1009.0 1004.3
16 17.08 СЗ 2
{4}
н/о н/о +28.7 +11.7 35 +30 +30 жарко 1007.7 1003.0
17 17.08 З 1
{3}
н/о н/о +29.9 +12.1 33 +31 +31 жарко 1006.7 1002.0
19 17.08 СЗ 1
{3}
н/о н/о +29.1 +12.5 36 +30 +30 жарко 1005.4 1000.7
21 17.08 С 1
{2}
н/о н/о +26.4 +12.6 42 +28 +28 жарко 1005.6 1000.9
23 17.08 СЗ 1
{3}
н/о н/о +26.0 +12.8 44 +28 +28 жарко 1006.2 1001.5
00 18.08 СЗ 1
{2}
н/о н/о +26.0 +12.9 44 +28 +28 жарко 1006.5 1001.8
01 18.08 штиль 0
{2}
н/о н/о +23.7 +14.0 55 +26 +26 жарко 1007.2 1002.4
02 18.08 З 1
{1}
н/о н/о +23.9 +13.3 51 +26 +26 жарко 1007.6 1002.8
03 18.08 З 1
{2}
н/о н/о +24.1 +14.0 53 +26 +26 жарко 1008.2 1003.4
04 18.08 ЮЗ 1
{4}
н/о н/о +20.3 +13.7 66 +24 +24 комфорт 1009.3 1004.5
05 18.08 В 1
{4}
н/о н/о +18.3 +13.6 74 +20 +20 1010.0 1005.1
06 18.08 ЮВ 1
{4}
н/о н/о +17.1 +12.7 75 +18 +18 1010.5 1005.6
07 18.08 ЮВ 1
{4}
н/о н/о +15.4 +12.2 81 +17 +17 1011.5 1006.6
08 18.08 ЮВ 1
{3}
н/о н/о +14.9 +11.6 81 +15 +15 1012.3 1007.4
09 18.08 ЮВ 1
{3}
н/о н/о +14.6 +11.5 82 +16 +16 1013.2 1008.3
10 18.08 Ю 1
{3}
н/о н/о +14.4 +11.5 83 +15 +15 1013.9 1008.9
11 18.08 Ю 1
{4}
н/о н/о +14.2 +10.6 79 +15 +15 1015.0 1010.0
12 18.08 Ю 1
{4}
н/о н/о +13.9 +10.4 79 +14 +14 1016.6 1011.6
13 18.08 Ю 1
{3}
н/о н/о +13.3 +9.6 78 +13 +13 1017.4 1012.4
14 18.08 Ю 1
{3}
н/о н/о +13.0 +9.6 80 +13 +13 1018.2 1013.2
15 18.08 Ю 1
{3}
н/о н/о +13.8 +10.1 78 +14 +14 1018.3 1013.3
16 18.08 Ю 1
{4}
н/о н/о +15.8 +9.9 68 +17 +17 1018.3 1013.4
17 18.08 Ю 2
{4}
н/о н/о +15.9 +6.9 55 +16 +16 1018.4 1013.5
18 18.08 Ю 2
{4}
н/о н/о +15.3 +8.1 62 +16 +16 1018.3 1013.3
19 18.08 ЮВ 2
{4}
н/о н/о +14.6 +7.7 63 +15 +15 1019.1 1014.1
20 18.08 Ю 2
{5}
н/о н/о +13.2 +6.7 65 +13 +13 1020.2 1015.2
21 18.08 Ю 1
{4}
н/о н/о +12.4 +7.1 70 +12 +12 1021.2 1016.2
22 18.08 ЮВ 1
{3}
н/о н/о +12.1 +6.9 70 +12 +12 1021.9 1016.9
23 18.08 Ю 1
{4}
н/о н/о +11.9 +6.4 69 +13 +13 1022.6 1017.6
00 19.08 Ю 1
{3}
н/о н/о +11.8 +6.9 72 +13 +13 1023.1 1018.1
01 19.08 ЮВ 1
{3}
н/о н/о +11.9 +6.5 69 +12 +12 1023.8 1018.8
02 19.08 Ю 1
{3}
н/о н/о +11.8 +5.5 65 +12 +12 1024.2 1019.2
03 19.08 ЮВ 1
{2}
н/о н/о +11.6 +6.0 68 +12 +12 1024.4 1019.3
04 19.08 Ю 1
{3}
н/о н/о +11.1 +6.8 75 +12 +12 1024.5 1019.4
05 19.08 ЮВ 1
{3}
н/о н/о +10.8 +6.1 73 +12 +12 1024.5 1019.4
07 19.08 Ю 1
{3}
н/о н/о +9.3 +3.9 69 +10 +10 1024.4 1019.3
08 19.08 Ю 1
{3}
н/о н/о +8.0 +3.2 72 +8 +8 1024.2 1019.1
09 19.08 С 1
{2}
н/о н/о +7.4 +2.9 73 +8 +8 1024.7 1019.6
10 19.08 ЮЗ 1
{2}
н/о н/о +6.8 +2.6 75 +7 +7 1025.0 1019.9
11 19.08 ЮЗ 1
{3}
н/о н/о +8.3 +3.6 72 +9 +9 1025.7 1020.6
12 19.08 Ю 1
{2}
н/о н/о +10.0 +4.9 71 +11 +11 1026.2 1021.1
13 19.08 Ю 1
{3}
н/о н/о +11.8 +5.4 65 +12 +12 1026.4 1021.3
14 19.08 ЮВ 1
{3}
н/о н/о +12.0 +5.4 64 +13 +13 1026.1 1021.0
15 19.08 Ю 1
{3}
н/о н/о +13.7 +5.7 58 +15 +15 1025.2 1020.2
16 19.08 ЮВ 2
{4}
н/о н/о +12.6 +5.2 61 +12 +12 1024.8 1019.8
17 19.08 Ю 1
{4}
н/о н/о +13.8 +6.3 61 +15 +15 1024.3 1019.3
18 19.08 ЮВ 1
{3}
н/о н/о +13.2 +6.1 62 +14 +14 1023.9 1018.9
19 19.08 Ю 1
{3}
н/о н/о +12.5 +5.4 62 +13 +13 1023.6 1018.6
20 19.08 Ю 1
{3}
н/о н/о +12.0 +6.0 67 +13 +13 1024.1 1019.1
21 19.08 ЮВ 1
{3}
н/о н/о +11.4 +6.3 71 +12 +12 1024.2 1019.1
22 19.08 Ю 1
{3}
н/о н/о +10.9 +6.8 76 +12 +12 1024.7 1019.6
23 19.08 Ю 1
{3}
н/о н/о +10.6 +7.0 78 +11 +11 1025.1 1020.0
00 20.08 Ю 1
{2}
н/о н/о +10.8 +7.0 77 +11 +11 1025.1 1020.0
01 20.08 Ю 1
{2}
н/о н/о +11.1 +7.0 76 +12 +12 1025.5 1020.4
02 20.08 В 1
{2}
н/о н/о +10.9 +6.7 75 +12 +12 1025.4 1020.3
03 20.08 В 1
{2}
н/о н/о +10.3 +6.7 78 +11 +11 1025.5 1020.4
04 20.08 В 1
{2}
н/о н/о +9.9 +6.1 77 +10 +10 1025.4 1020.3
05 20.08 В 1
{2}
н/о н/о +9.3 +6.4 82 +10 +10 1025.5 1020.4
06 20.08 З 1
{2}
н/о н/о +8.8 +6.6 86 +9 +9 1025.5 1020.4
07 20.08 Ю 1
{2}
н/о н/о +8.9 +6.9 87 +9 +9 1025.5 1020.4
08 20.08 ЮВ 1
{2}
н/о н/о +8.7 +6.6 87 +9 +9 1025.4 1020.3
09 20.08 Ю 1
{3}
н/о н/о +9.3 +6.5 83 +10 +10 1025.6 1020.5
10 20.08 ЮВ 1
{3}
н/о н/о +8.8 +6.6 86 +9 +9 1026.0 1020.9
11 20.08 Ю 1
{3}
н/о н/о +9.7 +6.9 83 +10 +10 1026.8 1021.7
12 20.08 ЮВ 1
{1}
н/о н/о +11.1 +7.6 79 +12 +12 1027.2 1022.1
13 20.08 ЮВ 1
{2}
н/о н/о +12.9 +8.1 73 +14 +14 1027.2 1022.2
15 20.08 Ю 1
{2}
н/о н/о +14.3 +7.2 62 +16 +16 1027.1 1022.1
18 20.08 Ю 1
{3}
н/о н/о +14.3 +5.7 56 +15 +15 1025.8 1020.8
20 20.08 ЮВ 1
{4}
н/о н/о +13.1 +5.7 61 +13 +13 1026.1 1021.1

 

Местоположение метеостанции Порту-Алегри (Риу-Гранди-ду-Сул, Бразилия): широта -30.05 долгота -51.17 высота над уровнем моря 48 м.

В архиве по умолчанию представлена погода в Порту-Алегри за последнюю неделю. Архивные данные за месяц целиком и за предыдущие месяцы, начиная с января 2011 года, Вы можете получить, выбрав интересующий диапазон дат из раскрывающегося списка и нажав кнопку "Ввод!".


*Определитесь, кто Вы:
робот инопланетянин человек

Внимание! Время в таблицах - всемирное. Для получения местного времени необходимо прибавить поправку, которая равна -3 ч.

Смотрите также архив погоды в соседних городах и на ближайших метеорологических станциях:

Погода в Порту-Алегри (Риу-Гранди-ду-Сул, Бразилия) (6 км)
Погода в Кампу-Боне (Риу-Гранди-ду-Сул, Бразилия) (44 км)
Погода в Канеле (Риу-Гранди-ду-Сул, Бразилия) (82 км)
Погода в Теутонии (Риу-Гранди-ду-Сул, Бразилия) (92 км)
Погода в Трамандаи (Риу-Гранди-ду-Сул, Бразилия) (99 км)
Погода в Бенту-Гонсалвисе (Риу-Гранди-ду-Сул, Бразилия) (104 км)
Погода в Камакве (Риу-Гранди-ду-Сул, Бразилия) (106 км)
Погода в Рио-Пардо (Риу-Гранди-ду-Сул, Бразилия) (118 км)
Погода в Мостардасе (Риу-Гранди-ду-Сул, Бразилия) (136 км)
Погода в Мостардасе (Риу-Гранди-ду-Сул, Бразилия) (136 км)

Пояснения к столбцам:

Ветер - указаны скорость ветра в м/с - средняя за 10 мин, порывы в срок и между сроками (в фигурных скобках) и направление, откуда дует ветер: С - северный, СВ - северо-восточный, В - восточный, ЮВ - юго-восточный, Ю - южный, ЮЗ - юго-западный, З - западный, СЗ - северо-западный.
Видимость - горизонтальная дальность видимости в метрах или километрах. При видимости от 1 до 10 км при отсутствии осадков обычно наблюдается дымка, при ухудшении видимости до 1 км и менее - туман. В сухую погоду видимость может ухудшаться дымом, пылью или мглою.
Явления - указаны атмосферные явления, наблюдавшиеся в срок или в последний час перед сроком; фигурными скобками обозначены явления, наблюдавшиеся между сроками (за 1-3 часа до срока); квадратными скобками обозначены град или гололедные отложения с указанием их диаметра в мм.
Облачность - указаны через наклонную черту общая и нижняя облачность в баллах и высота нижней границы облаков в метрах; квадратными скобками обозначены формы облаков: Ci - перистые, Cs - перисто-слоистые, Cc - перисто-кучевые, Ac - высококучевые, As - высокослоистые, Sc - слоисто-кучевые, Ns - слоисто-дождевые, Cu - кучевые, Cb - кучево-дождевые. Подробнее классификацию облаков см. в Атласе облаков (PDF).
T - Температура воздуха - температура, измеренная на высоте 2 м над землей.
Td - Температура точки росы - температура, при понижении до которой содержащийся в воздухе водяной пар достигнет насыщения.
f - Относительная влажность воздуха - влажноcть воздуха, измеренная на высоте 2 м над землей.
Te - Эффективная температура - температура, которую ощущает одетый по сезону человек в тени. Характеристика душности погоды. При расчете учитывается влияние влажности воздуха и скорости ветра на теплоощущения человека.
Tes - Эффективная температура на солнце - температура, которую ощущает человек, с поправкой на солнечный нагрев. Характеристика знойности погоды. Зависит от высоты солнца над горизонтом, облачности и скорости ветра. Ночью, в пасмурную погоду, а также при ветре 12 м/с и более поправка равна нулю.
P - Атмосферное давление - приведенное к уровню моря атмосферное давление.
Po - Атмосферное давление - измеренное на уровне метеостанции атмосферное давление.
Tmin - Минимальная температура - минимум температуры воздуха на высоте 2 м над землей.
Tmax - Максимальная температура - максимум температуры воздуха на высоте 2 м над землей.
R - Количество осадков - Количество выпавших осадков за период времени, мм. При наведении курсора мыши на число - период времени, за который выпало указанное количество осадков.
R24 - Количество осадков - Количество выпавших осадков за 24 часа, мм.
S - Снежный покров - Высота снежного покрова, см. При наведении курсора мыши на число - состояние снежного покрова и степень покрытия местности в баллах.